Location: Gad�tanya
(48.0500°N, 20.8500°E)
Time: 07:18:05
(UTC+00:00)

Resurs 1-4 Rocket - Pass Details

Date: 05 July 2020
Orbit: 800 x 814 km, 98.6° (Epoch: 05 August)

Event Time Altitude Azimuth Distance (km) Brightness Sun altitude
Rises 23:38:09 0° 20° (NNE) 3,351 7.0 -18.2°
Reaches altitude 10° 23:40:40 10° 29° (NNE) 2,413 5.8 -18.0°
Maximum altitude 23:45:38 38° 97° (E) 1,220 3.1 -17.8°
Enters shadow 23:48:45 20° 154° (SSE) 1,785 3.5 -17.7°
